Погода в Выселках

Россия / Краснодарский край     45°34′48″N   39°39′19″E
темп.,
°C
ветер,
м/с
пор.,
м/с
влажн.,
%
обл.,
%
осадки,
мм/ч
давл.,
гПа
погр.,
м
14 июня, пн
пн1400:00+17з118758 0.1 101211
03:00+15сз11935 0.3 101211
06:00+17всв12915 0.0 101269
09:00+22в34735 0.0 1012630
12:00+26в455935 0.1 10111525
15:00+25всв366788 0.3 1011372
18:00+24св3674100 0.1 1010167
21:00+20св487887 0.1 1009139
15 июня, вт
вт1500:00+19всв4117938 0.0 1008203
03:00+17всв41292100 1.6 1008193
06:00+18св2892100 2.6 1008205
09:00+20ссв5688100 7.0 1009300
12:00+25вюв346746 0.7 1009989
15:00+26зсз11679 3.1 10091002
18:00+26ю01680 1.5 1009816
21:00+21юз22840 1.5 100913
16 июня, ср
ср1600:00+18зсз33930 0.0 100837
03:00+18ссв22950 0.0 100838
06:00+19всв23915 0.0 100898
09:00+24вюв237722 0.0 1008645
12:00+26ююв3469100 0.1 10081103
15:00+24з2382100 1.8 1008252
18:00+24ююз2283100 0.2 100850
21:00+22сз489193 0.3 1009234
17 июня, чт
чт1700:00+19ссз4995100 0.0 1009291
03:00+18сз1197100 0.2 100916
06:00+19зюз4597100 0.8 1009235
09:00+20зсз2397100 10.3 1010347
12:00+20з2397100 4.4 1012351
15:00+22ю0189100 6.1 1013529
18:00+20юз469298 0.1 1013292
21:00+19з3696100 0.2 1015226
18 июня, пт
пт1800:00+17з4898100 0.3 1015223
03:00+17зсз249798 0.3 1016104
06:00+18зсз2396100 0.1 1017135
09:00+20ссз119195 0.1 1017369
12:00+21св448795 0.2 1017611
15:00+21всв578086 0.3 1017605
18:00+22всв697649 0.1 1017627
21:00+20св4108537 0.1 1017291